Nellis AFB, NV

11:43 PM PST on December 13, 2019 (GMT -0800)
Nellis Air Force Base

Weather History for KLSV - September, 2019

Change the Weather History Date:

Thursday, September 26, 2019

  Actual Average Record
Temperature  
Mean Temperature 79 °F -  
Max Temperature 86 °F 90 °F 100 °F (1999)
Min Temperature 73 °F 63 °F 55 °F (2007)
Cooling Degree Days 14    
Growing Degree Days 29 (Base 50)    
Moisture  
Dew Point 56 °F    
Average Humidity 45    
Maximum Humidity 59    
Minimum Humidity 34    
Precipitation  
Precipitation 0.00 in - - ()
Sea Level Pressure  
Sea Level Pressure 29.84 in    
Wind  
Wind Speed 7 mph (East)    
Max Wind Speed 16 mph    
Max Gust Speed -    
Visibility 10 miles    
Events      
Averages and records for this station are not official NWS values.
T = Trace of Precipitation, MM = Missing Value Source: NWS Daily Summary

Daily Weather History Graph

Daily Weather History Graph

Search for Another Location

Airport or City:

Astronomy

Sep. 26, 2019 Rise Set
Actual Time 6:31 AM PDT 6:31 PM PDT
Civil Twilight 6:05 AM PDT 6:56 PM PDT
Nautical Twilight 5:35 AM PDT 7:26 PM PDT
Astronomical Twilight 5:05 AM PDT 7:56 PM PDT
Moon 3:50 AM PDT (9/26) 5:41 PM PDT (9/26)
Length of Visible Light 12h 51m
Length of Day
12h 00m
Waning Crescent, 6% of the Moon is Illuminated
Sep 26
Waning Crescent
Sep 28
New
Oct 5
First Quarter
Oct 13
Full
Oct 21
Last Quarter

Hourly Weather History & Observations

Time (PDT) Temp. Heat Index Dew Point Humidity Pressure Visibility Wind Dir Wind Speed Gust Speed Precip Events Conditions
12:58 AM 77.2 °F - 55.4 °F 47% 29.81 in 10.0 mi North 5.8 mph - N/A   Clear
1:58 AM 78.3 °F - 55.8 °F 46% 29.82 in 10.0 mi ENE 5.8 mph - N/A   Overcast
2:58 AM 77.5 °F - 55.8 °F 47% 29.83 in 10.0 mi East 8.1 mph - N/A   Partly Cloudy
3:58 AM 75.7 °F - 57.9 °F 54% 29.84 in 10.0 mi Calm Calm - N/A   Partly Cloudy
4:58 AM 73.6 °F - 58.5 °F 59% 29.85 in 10.0 mi NNE 5.8 mph - N/A   Mostly Cloudy
5:58 AM 74.1 °F - 58.3 °F 58% 29.88 in 10.0 mi East 3.5 mph - N/A   Mostly Cloudy
6:58 AM 73.8 °F - 58.1 °F 58% 29.88 in 10.0 mi NNW 4.6 mph - N/A   Mostly Cloudy
7:58 AM 74.8 °F - 58.1 °F 56% 29.90 in 10.0 mi Calm Calm - N/A   Mostly Cloudy
8:58 AM 77.9 °F - 56.7 °F 48% 29.91 in 10.0 mi North 4.6 mph - N/A   Mostly Cloudy
9:58 AM 77.7 °F - 54.7 °F 45% 29.98 in 10.0 mi ESE 4.6 mph - N/A   Scattered Clouds
10:58 AM 80.8 °F 80.6 °F 54.9 °F 41% 29.91 in 10.0 mi SSE 3.5 mph - N/A   Mostly Cloudy
11:58 AM 81.0 °F 80.9 °F 56.3 °F 43% 29.90 in 10.0 mi East 9.2 mph - N/A   Mostly Cloudy
12:58 PM 82.2 °F 81.8 °F 56.1 °F 41% 29.87 in 10.0 mi East 9.2 mph - N/A   Mostly Cloudy
1:58 PM 85.5 °F 84.1 °F 55.4 °F 36% 29.83 in 10.0 mi East 10.4 mph - N/A   Partly Cloudy
2:58 PM 84.6 °F 83.5 °F 56.1 °F 38% 29.81 in 10.0 mi East 15.0 mph - N/A   Mostly Cloudy
3:58 PM 84.9 °F 83.6 °F 54.9 °F 36% 29.79 in 10.0 mi East 11.5 mph - N/A   Scattered Clouds
4:58 PM 85.1 °F 83.5 °F 53.6 °F 34% 29.77 in 10.0 mi East 11.5 mph - N/A   Mostly Cloudy
5:58 PM 84.0 °F 82.7 °F 54.1 °F 36% 29.77 in 10.0 mi East 10.4 mph - N/A   Partly Cloudy
6:58 PM 82.8 °F 81.7 °F 53.8 °F 37% 29.78 in 10.0 mi ESE 10.4 mph - N/A   Clear
7:58 PM 81.0 °F 80.5 °F 53.6 °F 39% 29.78 in 10.0 mi East 13.8 mph - N/A   Clear
8:58 PM 79.7 °F - 54.0 °F 41% 29.78 in 10.0 mi East 16.1 mph - N/A   Clear
9:58 PM 78.4 °F - 54.1 °F 43% 29.79 in 10.0 mi ESE 15.0 mph - N/A   Clear
10:58 PM 77.4 °F - 54.9 °F 46% 29.79 in 10.0 mi East 10.4 mph - N/A   Clear
11:58 PM 75.7 °F - 55.8 °F 50% 29.79 in 10.0 mi ENE 5.8 mph - N/A   Clear